NOAA 16 DEB, 41277

Orbit data source: Space-Track

NOAA 16 DEB, 41277 is space debris in SSO originally from a launch on Thu, 21 Sep 2000 UTC launched from the Air Force Western Test Range (AFWTR). Debris objects in space refer to the collection of defunct objects orbiting the Earth. Examples of debris include non-operational satellites, rocket bodies, and fragments generated from explosions, collisions, or faulty payload assembly.

Loading next visibility...
Identifier
41277, 2000-055GD
Orbit
SSO
Country
Flag of USUS
Related business
Manufacturer
Unknown
Mission
Spacecraft
Bus & Motor
Unknown
Mass
Unknown
Launch date (UTC)
2000-09-21 (25 years ago)
Launch vehicle
Unknown
Launch site
Air Force Western Test Range (AFWTR)
Object type
Payload
Rocket body
Debris
Shape & HBR
Unknown shape, 0.1 m
Radar Cross Section
Small (<0.1 m²)

Expand to show TLE details & history
Last TLE update: 1 day ago

TLE from 1 day ago
0 NOAA 16 DEB
1 41277U 00055GD  25340.28594804  .00015237  00000-0  39113-2 0  9992
2 41277  98.9842 171.9951 0033930 344.4436  15.5710 14.49989056518493
Epoch: 2025-12-06T06:51Z
TLE epoch observation values (Epoch: 2025-12-06T06:51:45.910Z)
Latitude
-0.00008°
Longitude
-6.26205°
Altitude
705.413 km
Speed
7.515 km/s
True Right ascension
11h 27m 58s
True Declination
0° 00' 00"
Sunlit
Object was in daylight at epoch
Visualization orbit readout
Latitude
Unknown
Longitude
Unknown
Altitude
Unknown
Speed
Unknown
Apparent Right ascension
Unknown
Apparent Declination
Unknown
Sunlit
N/A
Visualization observer readout
Local Sidereal Time
11:59:33
Azimuth
Unknown
Elevation
Unknown
Doppler factor
Unknown
Orbital elements
Apogee altitude
746.91 km
Perigee altitude
698.723 km
Semi-major axis
7,100.953 km
Eccentricity
0.00339
Inclination
98.9842°
RAAN
171.9951°
Arg. of periapsis
344.4436°
True anomaly
15.6758°
Mean anomaly
15.571°
Eccentric anomaly
15.62336°
Mean motion
3.62717 °/min
Orbital period
99.25 mins
BSTAR
0.0039113
Loading maneuver chart data...
Computing Atmospheric mass density...
Loading historical data...
Loading historical data...
Loading historical data...
Loading historical data...
Loading historical data...
Loading historical data...
Loading historical data...

Documentation

Showing up to 5 results
|